Regional Weather Roundup
Issued by NWS Little Rock, AR

Home | Current Version | Previous Version | Text Only | Print | Product List | Glossary Off
Versions: 1 2 3 4 5 6 7 8 9 10 11 12 13 14 15 16 17 18 19 20 21 22 23 24 25 26 27 28 29 30 31 32 33 34 35 36 37 38 39 40 41 42 43 44 45 46 47 48 49 50

000
ASUS44 KLZK 170305
RWRLZK

WEATHER ROUNDUP FOR ARKANSAS
NATIONAL WEATHER SERVICE LITTLE ROCK AR
1000 PM CDT TUE SEP 16 2014

NOTE: "FAIR" INDICATES FEW OR NO CLOUDS BELOW 12,000 FEET WITH NO
SIGNIFICANT WEATHER AND/OR OBSTRUCTIONS TO VISIBILITY.

ARZ001-003-010-029-170400-
NORTHWEST ARKANSAS

CITY           SKY/WX    TMP DP  RH WIND       PRES   REMARKS
FAYETTEVILLE   FOG       66  66 100 CALM      30.06S VSB 3/4
FORT SMITH     CLEAR     71  66  84 E6        30.03R
HARRISON       FOG       64  64 100 SE6       30.09S VSB 3/4
BENTONVILLE    CLEAR     68  64  88 SE7       30.07S
ROGERS         CLEAR     67  64  90 E7        30.07F
SILOAM SPGS    CLEAR     70  63  78 E6        30.06S
HIGHFILL       CLEAR     67  65  93 E3        30.06S
$$

ARZ004-005-016-170400-
NORTH CENTRAL ARKANSAS

CITY           SKY/WX    TMP DP  RH WIND       PRES   REMARKS
BATESVILLE     CLOUDY    66  57  72 E3        30.09R
FLIPPIN        CLOUDY    66  61  82 CALM      30.09R
MTN HOME       CLOUDY    66  63  90 E3        30.08R
$$

ARZ040-041-170400-
WEST CENTRAL ARKANSAS

CITY           SKY/WX    TMP DP  RH WIND       PRES   REMARKS
MENA           MOCLDY    77  72  83 CALM      30.06R
MOUNT IDA      MOCLDY    73  67  81 CALM      30.04R
$$

ARZ009-017-025-026-028-170400-
NORTHEAST ARKANSAS

CITY           SKY/WX    TMP DP  RH WIND       PRES   REMARKS
CORNING          N/A     64  59  82 CALM      30.09R
JONESBORO      CLOUDY    67  60  78 NE5       30.07S
NEWPORT        CLEAR     63  61  93 CALM      30.09R
WALNUT RIDGE   CLOUDY    66  59  77 N3        30.08R
BLYTHEVILLE    CLOUDY    66  60  81 NE5       30.08R
$$

ARZ022-023-033-042-044-170400-
CENTRAL ARKANSAS

CITY           SKY/WX    TMP DP  RH WIND       PRES   REMARKS
LITTLE ROCK    PTCLDY    70  65  84 NE6       30.06S
N LITTLE ROCK  PTCLDY    69  67  95 E8        30.06S
JACKSONVILLE   CLEAR     68  65  90 NE9       30.07R
SEARCY         CLEAR     65  60  83 NE6       30.08R
HOT SPRINGS    CLEAR     73  70  90 E6        30.06R
RUSSELLVILLE     N/A    N/A N/A N/A MISG      30.06R
CLINTON        CLOUDY    70  68  94 CALM      30.09R
$$

ARZ036-170400-
EAST ARKANSAS

CITY           SKY/WX    TMP DP  RH WIND       PRES   REMARKS
WEST MEMPHIS   PTCLDY    66  62  87 NE6       30.06R
$$

ARZ050-053-066-070-073-170400-
SOUTHWEST ARKANSAS

CITY           SKY/WX    TMP DP  RH WIND       PRES   REMARKS
ARKADELPHIA    FAIR      74  73  96 VRB3      30.05R
CAMDEN         CLEAR     72  68  88 NE5       30.03R
TEXARKANA      PTCLDY    76  70  82 E3        30.03R
EL DORADO      CLEAR     71  70  96 CALM      30.04R
DE QUEEN       CLEAR     72  71  97 CALM      30.01R FOG
$$

ARZ056-057-069-170400-
SOUTHEAST ARKANSAS

CITY           SKY/WX    TMP DP  RH WIND       PRES   REMARKS
PINE BLUFF     CLEAR     71  67  87 N3        30.05R
STUTTGART      CLOUDY    70  64  83 NE7       30.06S
MONTICELLO     CLEAR     74  69  85 NE5       30.04R

$$




USA.gov is the U.S. government's official web portal to all federal, state and local government web resources and services.